Regional Weather Roundup
Issued by NWS

Home | Current Version | Previous Version | Text Only | Print | Product List | Glossary Off
Versions: 1 2 3 4 5 6 7 8 9 10 11 12 13 14 15 16 17 18 19 20 21 22 23 24 25 26 27 28 29 30 31 32 33 34 35 36 37 38 39 40 41 42 43 44 45 46 47 48 49 50

000
ASUS43 KDTX 250701
RWRMI
MICHIGAN HOURLY REGIONAL WEATHER ROUNDUP
NATIONAL WEATHER SERVICE DETROIT/PONTIAC MI
200 AM EST SUN JAN 25 2015

NOTE: "FAIR" INDICATES FEW OR NO CLOUDS BELOW 12,000 FEET WITH NO
SIGNIFICANT WEATHER AND/OR OBSTRUCTION TO VISIBILITY.

MIZ047>049-052>055-059>063-066>070-074>076-081>083-250800-
SOUTHEAST LOWER MICHIGAN

CITY           SKY/WX    TMP DP  RH WIND       PRES   REMARKS
ADRIAN         CLOUDY    34  31  88 W5        29.70R WCI  30
ALMA           CLOUDY    31  26  79 N8        29.71R WCI  24
ANN ARBOR      CLOUDY    33  33 100 W3        29.68S FOG
BAD AXE        PTCLDY    22  17  78 N10       29.72R WCI  12
CARO           CLOUDY    26  20  77 N8G16     29.72R WCI  18
DETROIT CITY   CLOUDY    36  31  82 W5        29.69R WCI  32
DETROIT        CLOUDY    34  32  92 SW7       29.69R WCI  28
FLINT          CLOUDY    34  26  72 N12       29.70R WCI  25
GROSSE ILE     RAIN      36  32  87 W5        29.68R WCI  32
HILLSDALE      CLOUDY    36  34  94 CALM      29.67R
HOWELL         LGT SNOW  33  33  97 W5        29.67S WCI  29

CITY           SKY/WX    TMP DP  RH WIND       PRES   REMARKS
JACKSON        CLOUDY    34  32  92 CALM      29.67S FOG
LAMBERTVILLE   CLOUDY    36  32  87 SW3       29.70S
LANSING        CLOUDY    33  31  92 N8        29.69R FOG     WCI  26
LAPEER         CLOUDY    31  25  77 N8        29.70R WCI  24
MASON          CLOUDY    33  32  96 W3        29.68R FOG
MONROE         DRIZZLE   34  32  93 W3        29.68R
MT. CLEMENS    CLOUDY    34  31  87 N9        29.67R WCI  27
PONTIAC        CLOUDY    33  31  92 W6          N/A  FOG     WCI  28
PORT HOPE        N/A     25  15  66 N8        29.72R WCI  16
PORT HURON     CLOUDY    30  27  86 N7        29.70R WCI  23
TRI CITIES     CLOUDY    30  20  66 N13       29.73R WCI  20
TROY           CLOUDY    36  32  85 W3        29.69R
SAGINAW HB     CLOUDY    30  23  74 N14       29.73R WCI  20
$$
MIZ043>046-050>051-056>058-064>065-071>073-077>080-250800-
SOUTHWEST LOWER MICHIGAN

CITY           SKY/WX    TMP DP  RH WIND       PRES   REMARKS
BATTLE CREEK   CLOUDY    37  31  78 CALM      29.68S
BENTON HARBOR  CLOUDY    34  33  96 CALM      29.67F FOG
BIG RAPIDS     CLOUDY    27  22  83 N7        29.70R WCI  19
COLDWATER      CLOUDY    34  32  94 CALM      29.67S
FREMONT        CLOUDY    31  29  94 NE6       29.70R WCI  25
HOLLAND        CLOUDY    37  33  85 NE5       29.67F WCI  33
GRAND RAPIDS   CLOUDY    34  32  92 NE5       29.68S FOG     WCI  30
IONIA          CLOUDY    32  31  96 NE8       29.69R WCI  25
KALAMAZOO      CLOUDY    36  31  82 CALM      29.67F
LUDINGTON      CLOUDY    28  20  71 NE8       29.75R WCI  20
MARSHALL       CLOUDY    33  31  90 CALM      29.67S
MOUNT PLEASANT CLOUDY    30  23  75 N8        29.72R WCI  22
MUSKEGON       CLOUDY    33  30  88 NE13      29.69S WCI  24
SOUTH HAVEN    CLOUDY    35  32  92 CALM      29.67S FOG
$$
MIZ016>042-250800-
NORTHERN LOWER MICHIGAN

CITY           SKY/WX    TMP DP  RH WIND       PRES   REMARKS
ALPENA         CLEAR     14   7  73 NW6       29.79R WCI   5
BEAVER ISLAND  PTCLDY    13   6  76 CALM      29.85R
BELLAIRE       PTCLDY    17  11  76 N6        29.81R WCI   9
CADILLAC       CLOUDY    19  14  80 N8        29.71R WCI   9
CHARLEVOIX     MOCLDY    16  10  77 N13       29.85R WCI   2
FRANKFORT      CLOUDY    22  16  75 NE7       29.79R WCI  14
GAYLORD        CLEAR     12   6  77 CALM      29.74R
GRAYLING       CLEAR     13   9  83 CALM      29.75R
HARBOR SPRINGS CLEAR     12   5  73 CALM      29.82R
HOUGHTON LAKE  CLOUDY    18  11  74 N7        29.74R WCI   9
MANISTEE       CLOUDY    25  14  63 NE6       29.76S WCI  18
OSCODA         MOCLDY    20  13  73 N12G18    29.75R WCI   8
PELLSTON       PTCLDY    10   3  73 N9        29.84R WCI  -3
ROGERS CITY    PTCLDY    15  10  78 N9        29.81R WCI   3
TRAVERSE CITY  CLOUDY    20  13  74 NE10      29.79R WCI   9
$$
MIZ007>008-015-250800-
EASTERN UPPER MICHIGAN

CITY           SKY/WX    TMP DP  RH WIND       PRES   REMARKS
KINROSS        PTCLDY     1   0  92 NW6       29.83R WCI -10
MACKINAC ISLAN PTCLDY     9   3  76 N10       29.83R WCI  -5
NEWBERRY       CLEAR      7   3  85 CALM      29.83R
S. S. MARIE    PTCLDY     3  -5  69 N8        29.84R WCI -10
MUNISING         N/A     19  10  68 NE16      29.87R WCI   4
$$
MIZ004>006-011>014-085-250800-
CENTRAL UPPER MICHIGAN

CITY           SKY/WX    TMP DP  RH WIND       PRES   REMARKS
MANISTIQUE     CLOUDY    15   9  76 N8        29.85R WCI   4
ESCANABA       CLOUDY   N/A N/A N/A MISG        N/A
MENOMINEE      CLOUDY    21  10  63 NE13      29.82R WCI   9
SAWYER-GWINN   FLURRIES  17  11  78 NE12      29.83R WCI   4
$$
MIZ001>003-009>011-084-250800-
WESTERN UPPER MICHIGAN

CITY           SKY/WX    TMP DP  RH WIND       PRES   REMARKS
IRON MOUNTAIN  CLOUDY    16  10  77 N3        29.81R
HOUGHTON       FLURRIES  15   8  73 NE8       29.88R WCI   4
COPPER HARBOR    N/A     16   7  67 E7        29.93R WCI   6
IRONWOOD       CLOUDY    14   9  79 E6        29.83R WCI   5
$$

ABBREVIATIONS USED IN REMARKS
   TC - TEMPERATURE IN CELSIUS
  WCI - WIND CHILL INDEX
   HX - HEAT INDEX
  VSB - VISIBILITY



USA.gov is the U.S. government's official web portal to all federal, state and local government web resources and services.